Location: *
(41.7492°S, 135.4150°W)
Time: 19:18:45
(UTC+00:00)

USA 307 - Pass Details

Date: 20 September 2021
Orbit: 555 x 584 km, 54.0° (Epoch: 27 September)

Event Time Altitude Azimuth Distance (km) Brightness Sun altitude
Exits shadow 13:16:20 23° 344° (NNW) 1,261 4.3 -18.8°
Maximum altitude 13:18:41 46° 46° (NE) 790 3.8 -18.3°
Drops below altitude 10° 13:22:53 10° 119° (ESE) 1,914 6.8 -17.6°
Sets 13:25:12 0° 125° (SE) 2,815 7.8 -17.2°
